Temp
-11 -11 -11 -11 -11 -11 -11 -11 -11 -11 -11 -11 -11 -11 -11 -11 -12 -12 -12 -11 -11 -11 -12 -12 -12 -11 -11 -11 -11 -10 -10 -10 -10 -10 -10 -10 -10 -10 -10 -10 -10 -11 -11 -10 -10 -9 -9 -9 -9 -9 -9 -9 -8 -8 -8 -8 -7 -7 -7 -7 -6 -6 -6
-11 -11 -11 -11 -11 -11 -11 -11 -11 -11 -11 -12 -12 -12 -12 -12 -12 -12 -12 -12 -12 -11 -12 -12 -12 -12 -12 -12 -12 -11 -11 -10 -10 -10 -10 -10 -10 -10 -10 -11 -11 -11 -11 -10 -10 -10 -10 -10 -10 -9 -9 -9 -9 -9 -8 -8 -8 -8 -7 -7 -7 -7 -6
-12 -12 -12 -12 -12 -12 -12 -12 -12 -12 -12 -12 -12 -12 -12 -12 -13 -12 -12 -12 -12 -12 -12 -12 -12 -12 -12 -12 -12 -12 -12 -12 -11 -11 -11 -11 -11 -11 -11 -11 -11 -11 -11 -11 -11 -11 -10 -10 -10 -10 -9 -9 -9 -9 -8 -8 -8 -8 -8 -7 -7 -7 -7
-12 -12 -12 -12 -12 -12 -12 -12 -12 -12 -12 -12 -13 -13 -13 -13 -13 -13 -13 -12 -12 -12 -12 -12 -12 -12 -12 -13 -13 -13 -13 -12 -12 -12 -12 -12 -12 -12 -11 -11 -11 -11 -11 -11 -11 -11 -11 -10 -10 -10 -10 -10 -9 -9 -9 -9 -8 -8 -8 -8 -7 -7 -7
-12 -12 -13 -13 -13 -13 -13 -13 -13 -13 -13 -13 -13 -13 -13 -14 -14 -14 -14 -13 -13 -13 -12 -12 -12 -12 -13 -13 -13 -13 -13 -13 -13 -13 -12 -12 -12 -12 -12 -12 -11 -11 -11 -11 -11 -11 -11 -11 -10 -10 -10 -10 -10 -9 -9 -9 -8 -8 -8 -8 -8 -7 -7
-13 -13 -13 -13 -13 -13 -13 -13 -13 -13 -13 -13 -13 -14 -14 -14 -14 -14 -14 -14 -14 -13 -13 -13 -13 -13 -13 -13 -13 -13 -13 -13 -13 -13 -13 -13 -12 -12 -12 -12 -12 -11 -11 -11 -11 -11 -11 -11 -11 -11 -10 -10 -10 -10 -9 -9 -9 -8 -8 -8 -8 -8 -7
-13 -13 -13 -13 -13 -13 -13 -13 -13 -13 -13 -13 -14 -14 -14 -15 -15 -15 -15 -14 -14 -14 -14 -14 -13 -13 -13 -13 -13 -13 -13 -13 -13 -14 -13 -13 -13 -13 -13 -12 -12 -12 -12 -12 -11 -11 -11 -11 -11 -11 -11 -10 -10 -10 -10 -9 -9 -8 -8 -8 -8 -8 -7
-13 -13 -13 -13 -14 -14 -14 -14 -14 -14 -14 -14 -14 -14 -15 -15 -15 -15 -15 -15 -14 -14 -14 -14 -14 -14 -14 -14 -14 -14 -14 -14 -14 -14 -14 -14 -14 -13 -13 -13 -12 -12 -12 -12 -12 -12 -11 -11 -11 -11 -11 -10 -10 -10 -10 -10 -9 -9 -8 -8 -7 -7 -7
-13 -14 -14 -14 -14 -14 -14 -14 -14 -14 -14 -14 -15 -15 -15 -16 -16 -15 -15 -15 -15 -14 -14 -14 -14 -14 -14 -14 -14 -14 -14 -14 -14 -14 -13 -13 -14 -14 -13 -13 -13 -12 -12 -12 -12 -12 -11 -11 -11 -11 -11 -10 -10 -10 -10 -10 -9 -9 -9 -8 -8 -7 -7
-14 -14 -14 -14 -14 -14 -15 -15 -15 -15 -15 -15 -15 -16 -16 -16 -16 -16 -15 -15 -15 -14 -14 -14 -14 -15 -14 -14 -14 -14 -14 -14 -13 -13 -13 -13 -13 -13 -13 -13 -13 -13 -12 -12 -12 -11 -11 -11 -11 -11 -11 -10 -10 -10 -10 -10 -9 -9 -9 -8 -8 -8 -7
-14 -14 -15 -15 -15 -15 -15 -15 -15 -15 -15 -15 -15 -15 -16 -16 -16 -16 -16 -16 -15 -15 -14 -14 -15 -15 -15 -14 -14 -14 -14 -13 -13 -13 -13 -13 -13 -13 -13 -13 -13 -13 -12 -12 -12 -11 -11 -11 -11 -11 -11 -11 -11 -10 -10 -10 -10 -9 -9 -8 -8 -8 -7
-15 -15 -15 -15 -15 -15 -15 -16 -16 -15 -15 -15 -15 -14 -15 -16 -16 -16 -16 -16 -16 -15 -15 -15 -15 -15 -15 -15 -14 -14 -14 -14 -13 -13 -12 -12 -12 -12 -12 -12 -12 -12 -12 -12 -12 -11 -11 -11 -11 -11 -11 -11 -11 -10 -10 -10 -10 -10 -9 -9 -9 -8 -7
-15 -15 -15 -15 -16 -16 -16 -16 -16 -16 -15 -15 -15 -14 -14 -14 -15 -16 -16 -16 -16 -15 -15 -15 -15 -14 -14 -14 -14 -14 -14 -13 -13 -12 -12 -12 -11 -11 -11 -11 -11 -12 -12 -12 -12 -11 -11 -11 -11 -11 -11 -11 -11 -11 -11 -10 -10 -10 -10 -9 -9 -9 -8
-15 -15 -15 -16 -16 -16 -16 -17 -16 -16 -15 -15 -15 -14 -14 -14 -14 -15 -15 -15 -15 -15 -15 -15 -14 -14 -14 -14 -13 -13 -13 -13 -12 -12 -12 -12 -11 -11 -10 -10 -10 -11 -11 -11 -11 -11 -11 -11 -11 -11 -11 -11 -11 -11 -11 -11 -10 -10 -10 -10 -10 -10 -9
-15 -16 -16 -16 -16 -16 -17 -17 -17 -16 -16 -15 -15 -14 -14 -14 -14 -14 -14 -14 -14 -14 -14 -14 -14 -14 -13 -13 -13 -12 -12 -12 -12 -11 -11 -11 -11 -11 -11 -10 -10 -10 -10 -10 -11 -11 -10 -10 -10 -10 -10 -10 -11 -11 -11 -11 -11 -10 -10 -10 -10 -10 -10
-16 -16 -16 -16 -17 -17 -17 -17 -17 -17 -16 -16 -15 -15 -14 -14 -14 -14 -14 -14 -14 -14 -14 -13 -13 -13 -13 -12 -12 -11 -11 -11 -11 -11 -11 -11 -11 -11 -11 -11 -10 -9 -9 -9 -10 -10 -10 -10 -10 -10 -10 -10 -10 -10 -11 -11 -11 -11 -11 -10 -10 -10 -10
-16 -16 -16 -17 -17 -17 -18 -18 -18 -17 -16 -16 -15 -15 -15 -15 -14 -14 -14 -14 -13 -13 -13 -13 -13 -12 -12 -12 -11 -11 -10 -10 -10 -10 -10 -10 -10 -10 -11 -10 -9 -9 -9 -9 -9 -9 -9 -9 -10 -10 -10 -10 -10 -10 -11 -11 -11 -11 -11 -10 -10 -9 -9
-16 -17 -17 -17 -17 -18 -18 -18 -18 -18 -17 -16 -16 -15 -15 -15 -14 -14 -14 -14 -13 -13 -13 -12 -12 -12 -12 -12 -11 -11 -10 -9 -9 -9 -9 -10 -10 -10 -10 -10 -9 -9 -9 -9 -9 -9 -9 -9 -9 -9 -10 -10 -9 -10 -10 -11 -11 -10 -10 -10 -9 -9 -8
-17 -17 -17 -18 -18 -18 -18 -18 -18 -18 -17 -17 -16 -15 -15 -15 -14 -14 -14 -13 -13 -13 -12 -12 -12 -11 -11 -11 -11 -10 -9 -9 -8 -8 -8 -9 -9 -10 -10 -9 -9 -9 -9 -9 -9 -9 -9 -9 -9 -8 -9 -9 -9 -9 -9 -10 -11 -10 -10 -10 -9 -9 -8
-17 -17 -18 -18 -18 -18 -18 -19 -19 -19 -18 -17 -16 -15 -15 -15 -14 -14 -14 -13 -13 -12 -12 -11 -11 -11 -10 -10 -10 -9 -9 -8 -8 -8 -8 -8 -9 -9 -9 -8 -8 -8 -8 -9 -9 -9 -8 -9 -9 -9 -8 -8 -8 -9 -9 -9 -10 -10 -10 -9 -9 -8 -8
-18 -18 -18 -18 -19 -19 -19 -19 -19 -19 -19 -18 -17 -16 -15 -14 -14 -14 -14 -13 -12 -12 -11 -11 -11 -10 -10 -9 -9 -9 -8 -8 -8 -8 -8 -8 -8 -8 -8 -8 -8 -8 -8 -9 -9 -9 -9 -9 -9 -9 -9 -9 -8 -8 -8 -8 -9 -9 -9 -9 -9 -8 -8
-18 -18 -18 -19 -19 -19 -19 -20 -20 -20 -19 -19 -17 -16 -15 -14 -14 -14 -13 -12 -12 -11 -11 -10 -10 -9 -9 -9 -9 -8 -8 -8 -8 -8 -8 -8 -8 -7 -7 -8 -8 -8 -8 -8 -9 -9 -9 -9 -10 -10 -9 -9 -9 -8 -8 -8 -8 -8 -9 -9 -9 -9 -8
-19 -19 -19 -19 -19 -19 -20 -20 -20 -20 -20 -19 -18 -17 -15 -14 -14 -13 -13 -12 -11 -11 -10 -10 -9 -9 -9 -9 -9 -9 -8 -8 -8 -8 -8 -8 -8 -8 -7 -7 -7 -7 -7 -8 -8 -9 -9 -9 -9 -9 -9 -9 -9 -9 -9 -9 -8 -8 -8 -8 -9 -9 -9
-19 -19 -19 -19 -19 -20 -20 -20 -20 -20 -19 -19 -18 -17 -16 -14 -13 -13 -12 -12 -11 -11 -10 -10 -9 -9 -9 -9 -9 -9 -9 -9 -8 -8 -8 -8 -8 -8 -8 -8 -8 -7 -7 -7 -8 -8 -8 -8 -9 -9 -9 -9 -8 -8 -8 -9 -9 -9 -8 -8 -8 -8 -9
-19 -19 -19 -19 -20 -20 -20 -20 -20 -19 -19 -18 -18 -17 -15 -14 -13 -12 -12 -11 -11 -10 -10 -10 -9 -9 -9 -9 -9 -9 -9 -9 -9 -9 -9 -8 -8 -8 -8 -8 -8 -8 -8 -7 -7 -7 -7 -8 -8 -8 -8 -8 -8 -8 -9 -9 -9 -9 -9 -9 -8 -8 -8
-19 -19 -19 -19 -20 -19 -19 -19 -19 -19 -18 -17 -17 -16 -15 -14 -13 -12 -11 -11 -11 -10 -10 -10 -10 -10 -10 -9 -9 -9 -9 -9 -9 -9 -9 -9 -9 -9 -9 -9 -8 -8 -8 -8 -7 -7 -7 -7 -7 -7 -8 -8 -9 -9 -9 -9 -9 -9 -9 -9 -9 -9 -9
-19 -19 -19 -20 -19 -19 -19 -19 -18 -17 -17 -17 -16 -15 -14 -13 -12 -12 -11 -11 -11 -10 -10 -10 -10 -10 -10 -10 -10 -9 -9 -9 -9 -9 -9 -9 -9 -10 -10 -9 -9 -9 -9 -8 -8 -8 -8 -8 -8 -7 -8 -8 -9 -9 -9 -9 -9 -9 -9 -10 -10 -9 -9
-19 -19 -19 -19 -19 -19 -18 -18 -17 -17 -16 -16 -15 -15 -14 -13 -12 -12 -12 -11 -11 -11 -11 -11 -11 -11 -10 -10 -10 -10 -10 -10 -10 -10 -10 -10 -10 -11 -11 -10 -10 -10 -10 -9 -9 -9 -9 -9 -8 -8 -8 -8 -9 -9 -9 -9 -9 -9 -9 -9 -10 -9 -9
-19 -19 -19 -19 -19 -18 -17 -16 -16 -16 -15 -15 -14 -14 -13 -13 -12 -12 -12 -11 -11 -11 -11 -11 -11 -11 -11 -11 -10 -10 -11 -11 -11 -11 -11 -11 -11 -11 -11 -11 -11 -10 -10 -10 -10 -10 -10 -9 -9 -9 -8 -8 -8 -8 -9 -9 -9 -9 -9 -9 -9 -9 -9
-18 -19 -19 -19 -19 -18 -17 -16 -15 -15 -14 -14 -13 -13 -13 -12 -12 -12 -12 -11 -11 -11 -11 -11 -11 -11 -11 -11 -11 -11 -11 -11 -11 -11 -11 -11 -12 -12 -11 -11 -11 -11 -11 -11 -11 -11 -10 -10 -10 -9 -9 -9 -8 -8 -8 -8 -9 -9 -9 -9 -9 -8 -8
-17 -18 -18 -19 -19 -18 -17 -16 -15 -14 -13 -13 -13 -12 -12 -12 -12 -11 -11 -11 -11 -11 -11 -11 -11 -11 -11 -11 -11 -11 -11 -12 -12 -12 -12 -12 -12 -12 -13 -13 -13 -13 -13 -13 -12 -12 -11 -11 -10 -10 -10 -9 -9 -8 -8 -8 -8 -9 -9 -9 -9 -8 -8
-17 -17 -17 -17 -18 -18 -17 -16 -15 -15 -14 -13 -12 -12 -12 -11 -11 -11 -12 -11 -11 -11 -11 -11 -11 -11 -12 -12 -12 -12 -13 -13 -13 -13 -13 -13 -13 -13 -14 -14 -14 -14 -14 -14 -13 -13 -12 -12 -12 -11 -11 -11 -10 -10 -9 -8 -8 -8 -8 -8 -8 -8 -8
-16 -16 -16 -16 -16 -16 -16 -15 -15 -14 -14 -13 -12 -12 -12 -12 -12 -12 -12 -12 -12 -12 -12 -12 -12 -12 -13 -13 -13 -14 -14 -14 -15 -15 -15 -15 -15 -15 -15 -15 -15 -15 -15 -15 -14 -14 -13 -13 -13 -12 -12 -12 -11 -11 -10 -9 -8 -8 -8 -8 -8 -7 -7
-16 -15 -15 -15 -14 -14 -14 -14 -14 -13 -13 -12 -12 -12 -13 -13 -13 -13 -13 -13 -13 -13 -13 -13 -13 -14 -14 -14 -14 -15 -15 -15 -16 -16 -17 -17 -17 -16 -16 -16 -16 -16 -16 -16 -16 -15 -14 -14 -14 -14 -13 -12 -12 -12 -11 -11 -10 -9 -8 -7 -7 -7 -7
-16 -15 -15 -14 -14 -13 -13 -13 -13 -13 -12 -12 -13 -13 -14 -14 -14 -14 -14 -14 -15 -15 -15 -14 -14 -15 -15 -15 -16 -16 -16 -16 -17 -17 -18 -18 -18 -17 -17 -17 -17 -17 -17 -17 -16 -16 -16 -16 -15 -15 -14 -14 -13 -13 -12 -11 -11 -10 -9 -9 -8 -7 -7
-17 -16 -16 -15 -14 -13 -13 -13 -13 -13 -13 -14 -14 -14 -14 -14 -14 -14 -15 -15 -16 -16 -16 -16 -16 -16 -16 -16 -17 -17 -17 -18 -18 -18 -19 -19 -19 -18 -18 -18 -18 -18 -18 -17 -17 -17 -17 -17 -17 -17 -16 -15 -14 -13 -13 -12 -12 -12 -11 -10 -10 -9 -8
Height
744 746 747 749 750 751 752 753 753 753 754 754 754 755 756 757 758 758 758 759 759 759 760 761 762 762 763 764 764 765 765 765 766 766 766 766 767 767 768 769 769 766 764 763 762 760 759 758 758 757 757 757 756 756 756 755 754 754 753 753 753 753 752
740 742 743 745 746 747 748 749 750 750 750 750 750 751 752 753 754 755 755 755 755 756 757 757 758 759 760 761 761 762 762 762 763 764 764 764 765 765 765 766 766 765 763 761 760 759 758 757 757 755 755 756 755 755 755 754 754 753 753 753 753 753 752
735 737 739 741 742 743 744 745 746 746 746 746 746 747 748 748 750 750 751 752 752 753 753 754 754 755 756 757 758 759 759 759 760 761 761 761 762 762 763 763 763 762 761 759 758 757 756 755 755 754 753 753 754 754 753 753 753 752 752 752 752 752 751
730 733 735 737 738 739 740 741 742 742 742 742 743 743 743 744 745 746 747 748 748 749 749 750 751 751 753 754 755 755 756 756 757 757 758 758 759 759 759 760 760 759 759 757 756 755 754 754 753 753 752 752 752 752 752 751 751 751 751 751 751 751 750
725 727 729 731 733 735 736 736 737 738 738 738 739 739 739 740 741 742 743 744 744 745 746 746 747 748 749 750 751 752 752 752 753 754 754 754 755 755 756 756 756 756 755 755 753 753 752 752 752 752 752 751 751 750 750 749 749 749 749 749 749 749 749
719 721 723 726 728 729 731 732 733 733 733 734 734 735 735 736 737 738 739 739 740 741 742 742 743 744 745 746 747 747 748 749 750 751 751 751 751 752 752 752 752 752 752 752 751 750 750 750 750 750 750 751 750 749 748 747 747 747 747 747 747 747 746
714 716 718 721 723 724 726 727 728 728 729 730 730 731 731 732 733 734 734 735 736 736 737 738 739 740 741 741 742 743 744 746 747 748 748 748 748 749 750 750 749 749 749 749 748 748 748 748 749 749 749 749 749 749 747 746 745 744 744 745 745 744 744
710 712 714 716 718 719 721 722 722 723 724 725 726 726 727 728 729 729 730 731 731 732 733 733 734 735 736 737 738 739 740 742 743 744 745 745 746 746 747 747 747 747 747 747 747 746 746 746 747 747 747 747 747 747 746 745 744 742 742 742 742 742 742
707 708 710 712 714 715 717 717 717 718 719 720 721 722 723 724 724 725 726 727 727 728 728 729 730 730 731 733 734 735 736 737 739 740 741 742 743 744 745 745 745 746 746 746 745 745 745 745 745 745 745 745 745 744 743 743 743 741 740 740 740 739 739
704 705 706 708 710 711 712 713 713 714 715 716 717 718 719 719 720 721 722 723 723 724 724 725 725 726 727 728 730 731 732 734 735 737 738 739 740 740 742 742 743 743 744 744 744 744 744 743 743 743 743 743 743 742 742 741 741 740 739 739 738 737 737
699 701 702 704 706 706 708 708 709 710 711 712 714 714 715 715 716 717 718 719 720 720 720 721 721 722 723 724 725 726 728 729 731 733 734 735 737 737 738 739 740 740 741 741 742 741 741 741 740 741 741 741 741 741 740 740 739 738 738 738 737 736 735
695 696 698 700 701 702 703 704 705 707 708 709 710 711 711 711 711 713 714 715 716 716 717 717 717 718 718 719 720 721 723 724 726 729 730 732 733 734 735 735 735 736 738 738 738 738 737 737 738 739 739 739 739 739 739 738 738 738 737 737 736 736 735
691 692 694 695 696 697 699 699 701 703 704 705 706 707 708 707 707 707 709 710 712 713 713 713 714 714 714 714 715 717 718 719 721 724 726 728 730 731 731 731 732 732 733 734 734 734 733 733 734 735 735 736 736 737 737 737 737 736 736 736 735 735 735
687 688 689 691 692 693 694 695 697 700 701 702 702 703 704 704 704 703 704 705 707 708 709 709 710 710 710 710 711 712 713 715 717 719 721 723 725 726 726 727 728 728 729 729 729 729 728 728 729 730 731 732 734 734 735 735 735 734 735 734 734 734 734
683 684 685 686 688 689 690 690 693 696 697 698 699 700 700 701 700 700 700 700 702 703 704 705 705 706 706 706 707 708 709 710 712 714 716 718 719 720 721 722 723 724 725 725 724 724 723 724 725 726 727 729 730 730 731 732 732 732 733 732 732 732 732
679 680 681 682 684 686 686 687 689 692 693 694 695 696 697 697 696 696 696 697 698 699 700 701 701 701 702 702 703 704 705 706 708 710 711 713 714 715 716 717 717 719 721 721 720 719 719 720 721 722 723 725 726 726 727 729 730 730 730 730 730 730 730
675 676 677 679 680 682 683 684 685 687 689 690 691 692 693 693 692 692 693 693 694 695 695 696 697 697 698 698 699 699 701 703 704 705 706 708 709 711 712 712 713 715 716 717 717 716 716 716 718 719 720 721 722 722 724 726 727 726 727 727 727 726 727
672 673 674 675 676 678 679 680 681 683 685 686 687 688 689 689 689 689 689 689 690 691 691 691 692 693 694 694 694 695 697 699 700 701 702 703 705 707 708 707 708 710 712 713 714 714 714 714 715 715 717 718 719 719 721 722 721 722 724 725 724 723 723
669 670 671 672 673 674 676 676 677 679 680 681 683 684 685 685 685 685 685 686 686 687 687 687 688 689 690 690 691 692 693 694 695 696 697 698 700 703 703 703 704 706 707 708 709 709 710 711 712 713 714 714 715 717 718 717 717 719 721 721 721 722 722
666 667 668 668 669 671 672 673 673 674 676 678 679 680 681 681 681 681 681 682 683 683 683 684 684 685 685 686 687 688 689 690 691 692 694 695 697 698 698 699 700 702 703 704 705 705 706 707 708 710 711 711 712 713 714 714 714 715 717 718 719 720 720
663 664 665 665 666 667 668 669 670 670 672 673 675 676 677 677 677 677 678 679 679 680 680 680 680 680 681 683 684 684 686 687 688 690 691 692 693 694 694 696 697 698 699 700 701 702 703 704 705 706 708 709 709 710 711 711 712 712 713 715 717 718 719
660 661 662 663 663 664 665 665 666 666 667 669 670 671 672 673 673 674 675 675 675 676 676 676 676 677 678 679 680 681 683 685 686 688 689 690 690 691 691 693 694 694 695 696 697 698 699 700 701 702 703 704 706 706 707 708 709 709 710 712 713 715 716
657 658 659 660 661 661 662 662 662 663 663 665 666 667 668 669 670 671 672 672 672 672 673 673 674 674 675 677 678 680 681 683 684 685 686 687 688 689 689 690 690 690 691 692 693 695 696 696 697 698 699 700 701 702 703 704 705 707 707 708 709 711 712
655 656 657 657 658 658 659 659 658 658 659 660 661 662 664 665 666 667 668 668 669 669 670 670 671 672 673 675 676 678 679 681 682 683 684 685 686 686 687 687 688 688 689 689 690 692 693 694 694 695 695 696 697 698 700 701 702 703 704 704 705 706 708
652 653 654 655 655 655 656 656 655 654 655 656 657 658 660 661 662 663 664 665 666 666 667 668 669 670 672 673 674 676 677 678 679 680 682 683 683 684 684 685 686 687 687 688 688 689 690 691 691 691 691 693 694 695 697 698 699 700 700 702 702 703 704
649 651 652 652 652 653 653 653 652 652 652 653 654 655 656 658 659 660 660 661 662 663 664 666 667 669 670 671 672 673 675 676 677 678 679 680 680 681 682 683 684 685 685 686 687 688 688 688 689 689 689 690 691 692 693 694 696 697 697 698 700 701 701
647 648 649 650 650 650 650 650 650 649 649 650 651 652 654 655 656 656 657 658 659 660 662 664 666 667 668 669 670 671 672 673 674 676 676 677 678 679 680 681 682 683 683 684 685 686 687 687 687 687 687 688 688 689 690 691 693 694 694 695 697 698 699
644 645 646 647 648 648 648 647 646 646 647 647 648 650 651 652 653 654 655 656 657 659 660 662 664 665 666 667 668 669 670 671 672 673 674 675 676 677 678 679 680 680 681 682 683 684 685 685 686 686 686 686 686 687 688 689 690 691 692 693 694 695 696
641 643 644 645 645 645 645 644 643 643 644 645 647 648 649 650 651 652 653 654 656 657 659 661 662 663 664 665 666 667 668 669 670 671 672 673 674 675 676 677 678 678 679 680 681 682 683 683 684 684 684 684 684 684 685 686 687 688 689 691 692 692 693
639 640 642 643 643 642 642 641 641 642 643 644 645 647 647 649 650 651 652 653 654 656 657 658 660 661 661 662 663 664 665 666 668 669 669 671 672 673 674 675 676 677 678 678 679 680 681 681 682 682 682 682 682 682 683 683 684 685 687 688 689 689 690
638 639 640 640 640 640 640 640 640 641 642 643 644 645 646 647 648 649 650 651 653 654 655 656 657 658 659 660 660 661 662 664 665 666 667 669 670 671 672 674 674 675 676 677 678 678 679 679 680 680 680 680 680 680 680 680 681 682 684 685 686 686 687
636 637 638 638 638 638 638 639 640 640 641 642 643 644 645 646 647 648 648 649 650 651 652 653 654 656 657 658 659 660 661 662 663 665 666 667 669 670 671 672 672 673 674 675 676 676 677 678 678 678 678 678 678 678 678 678 678 679 680 682 682 683 684
634 635 636 637 637 637 638 638 639 640 640 641 642 643 644 645 645 646 647 647 649 650 650 652 653 654 656 657 658 659 660 661 662 664 665 666 667 668 669 670 670 671 673 674 674 675 675 676 676 676 677 677 676 677 677 676 676 676 677 678 679 680 681
633 633 634 635 635 636 637 638 639 639 640 640 641 642 643 643 644 645 646 647 649 650 650 652 653 654 655 656 657 658 659 660 662 663 664 665 666 666 667 668 669 670 672 672 673 674 674 675 675 675 676 676 675 675 675 675 675 674 674 675 676 677 678
632 632 633 633 633 634 634 636 637 639 639 640 641 641 642 643 644 645 647 648 649 650 651 652 652 653 654 655 656 658 658 659 661 662 663 664 664 665 666 667 668 670 670 671 672 673 673 673 674 674 674 675 675 675 674 674 674 674 673 674 674 675 675
632 632 632 632 632 632 632 633 636 638 639 640 640 641 642 644 645 646 647 648 649 650 650 651 652 653 654 655 656 657 658 659 660 662 662 662 663 664 665 666 667 668 669 669 671 671 671 672 673 673 673 674 674 674 674 673 674 673 673 673 673 674 674
Wind_Speed
20 20 21 20 20 21 20 20 20 20 20 20 19 18 17 16 16 17 16 15 16 16 17 17 18 19 18 17 17 16 16 15 14 14 13 14 15 15 15 15 16 13 11 13 15 15 15 15 16 17 15 13 13 12 12 13 13 13 13 14 14 13 13
20 20 20 20 21 21 20 20 20 20 20 20 20 19 18 17 17 17 17 16 16 17 18 18 19 19 19 18 19 18 18 17 16 16 16 16 16 16 16 15 16 15 12 12 14 15 15 14 14 17 17 15 14 15 14 14 14 12 13 16 15 12 14
21 20 20 20 21 21 21 21 20 20 20 20 20 19 18 17 17 17 17 17 17 18 18 19 19 19 19 18 19 19 19 18 17 17 17 17 17 16 16 15 16 16 14 14 14 14 14 14 13 15 16 16 16 16 16 15 14 13 16 18 17 14 16
21 21 21 21 21 22 21 21 21 21 21 21 20 20 19 18 17 17 17 17 18 18 19 20 19 19 18 18 18 18 18 18 18 18 17 17 17 17 17 16 16 16 16 15 14 13 13 14 14 15 15 16 16 16 16 17 16 15 16 17 17 17 18
22 21 22 23 22 22 22 22 22 22 22 22 21 20 20 19 18 18 18 18 19 18 18 19 19 18 18 18 18 18 18 17 18 17 17 17 17 16 16 16 16 16 16 16 15 14 14 14 14 15 15 14 15 15 15 15 15 14 14 15 17 17 19
23 22 23 23 23 23 23 23 22 23 23 22 21 20 19 18 18 19 19 20 20 19 17 17 17 17 17 18 18 17 17 17 17 17 17 17 17 16 15 15 15 16 15 16 16 15 15 15 15 16 16 15 15 15 15 14 14 14 15 15 16 18 21
24 23 23 23 24 24 23 23 23 23 23 22 21 20 19 19 19 19 19 18 19 19 18 18 18 18 18 19 19 18 17 16 16 16 16 16 15 15 15 14 14 15 15 16 16 15 15 15 16 17 17 16 15 16 17 16 15 15 14 14 15 16 17
25 23 22 22 23 23 23 23 23 23 23 22 20 20 20 19 19 18 17 17 17 18 19 20 20 20 20 21 21 21 20 20 18 16 15 15 14 14 15 15 14 14 14 15 15 15 15 15 15 16 16 16 15 15 16 16 16 16 15 14 14 14 13
25 23 22 22 22 23 23 23 24 24 24 22 21 21 20 18 16 17 17 17 18 17 18 20 20 20 21 21 22 23 23 23 22 19 16 15 15 15 14 15 15 14 14 14 14 15 14 14 15 15 15 15 15 15 15 15 15 16 16 15 15 15 15
25 23 23 23 23 23 23 25 25 26 25 23 21 20 17 15 15 16 17 17 17 17 18 19 20 19 21 22 23 24 24 23 23 23 20 16 17 18 16 15 15 15 15 14 14 14 14 14 15 15 15 15 15 15 14 14 14 15 15 15 14 14 14
26 24 23 23 23 23 25 26 25 24 23 22 22 20 18 17 16 15 15 16 16 15 15 17 19 19 20 21 23 23 24 24 24 25 25 22 20 21 20 18 17 16 16 15 15 15 15 15 15 15 15 14 14 13 13 13 14 13 13 13 11 10 10
27 26 24 22 23 24 25 25 23 22 22 23 23 23 22 22 22 19 18 17 17 16 15 15 17 17 19 20 22 23 24 24 25 25 26 26 26 26 25 24 22 20 18 17 17 17 17 17 16 15 14 14 13 12 11 12 12 12 12 13 12 11 10
27 27 25 24 24 24 24 23 22 22 23 24 24 24 23 23 24 25 24 22 20 19 18 18 17 17 18 19 20 22 23 23 24 25 26 27 27 28 29 29 29 27 25 24 22 20 19 19 17 15 15 16 14 12 10 11 11 11 12 12 13 13 12
27 27 27 28 28 26 26 27 25 23 24 25 24 24 24 24 24 25 26 27 26 24 22 21 20 19 19 18 19 21 22 23 24 24 25 27 27 28 29 29 30 31 32 31 30 29 27 26 24 22 20 19 17 15 14 13 12 12 11 12 13 14 13
27 27 28 30 29 29 30 31 26 23 25 26 25 24 24 24 25 24 24 25 26 26 24 22 21 21 20 19 18 20 21 23 24 24 25 26 27 28 28 28 29 30 30 32 35 37 37 35 33 31 28 26 23 21 20 18 15 13 12 12 12 12 12
24 24 27 28 29 29 30 29 26 24 25 26 25 24 24 24 25 24 23 23 23 23 23 22 21 21 20 20 19 20 21 22 23 25 26 27 27 28 28 28 29 28 28 31 34 38 39 38 36 34 32 30 27 27 25 20 15 14 13 12 11 10 10
20 20 25 27 27 27 25 23 23 25 26 25 25 24 23 23 23 22 23 23 22 22 22 23 23 22 21 20 20 20 21 22 23 25 27 28 28 27 27 29 29 28 28 29 30 32 33 34 33 31 29 27 25 25 23 16 13 14 14 12 9 8 10
17 18 23 23 23 24 22 18 20 23 25 25 25 24 23 22 21 21 21 21 22 22 23 23 24 24 23 22 21 21 21 22 25 26 28 31 30 26 27 29 28 27 27 27 28 29 28 28 28 28 28 27 25 24 21 18 17 16 13 12 11 9 10
15 16 17 16 18 22 21 19 21 24 24 23 24 24 23 22 21 21 21 20 20 21 22 22 23 25 26 25 23 22 22 22 22 21 23 29 28 23 25 30 28 26 26 25 25 28 28 28 28 26 26 27 27 26 25 26 25 19 14 13 13 12 9
14 14 13 13 16 20 22 21 23 24 23 21 22 23 23 22 21 20 20 19 18 19 20 21 21 22 25 26 25 25 24 20 16 14 15 21 23 21 23 28 26 25 26 25 25 26 27 29 29 27 24 24 25 26 28 31 32 27 21 16 13 13 11
12 13 13 13 16 20 23 24 25 26 23 20 22 24 23 23 22 20 19 18 19 19 19 19 20 20 21 23 24 25 22 17 13 12 11 14 18 19 22 23 20 20 22 22 23 23 24 26 26 24 23 22 22 21 24 28 31 32 31 25 18 14 14
14 13 11 12 14 18 21 23 24 25 23 20 21 23 24 24 23 21 20 19 19 20 19 18 19 18 18 17 18 18 17 14 13 13 12 13 15 16 19 19 19 18 18 19 20 18 17 20 21 18 18 19 18 18 20 23 25 27 30 31 26 20 16
14 12 9 9 11 12 15 20 22 23 22 21 22 23 25 26 24 22 21 20 19 19 19 18 18 16 14 14 15 15 15 14 14 13 13 13 14 15 16 16 16 15 14 16 18 16 13 14 16 14 13 14 14 15 17 20 22 23 26 29 31 28 23
12 11 10 11 11 10 12 16 22 25 24 22 23 24 24 25 25 24 23 21 19 19 18 18 17 15 14 14 15 15 15 14 14 14 14 14 14 15 15 10 7 7 8 10 12 13 11 12 13 13 14 15 15 14 14 16 20 23 24 26 29 31 30
11 11 11 11 12 13 13 13 16 20 20 19 21 23 23 24 24 24 25 24 22 21 20 17 15 15 14 14 15 15 15 15 15 15 15 15 15 13 11 7 5 5 5 6 7 9 10 12 12 13 15 15 13 12 12 14 16 19 21 22 21 23 26
11 11 11 11 13 14 14 12 13 14 14 15 17 19 21 22 23 23 25 25 24 22 20 18 15 14 14 15 15 15 15 15 14 13 12 13 13 11 8 6 7 7 7 8 11 11 11 12 12 12 12 12 12 13 14 15 14 13 16 19 18 16 18
11 11 11 11 12 12 12 11 12 12 12 13 14 15 16 17 17 16 16 14 13 13 14 13 11 11 11 11 12 13 13 13 13 11 10 9 10 8 5 5 7 7 7 9 11 11 11 11 11 10 9 10 13 15 15 15 13 10 10 13 14 13 13
12 12 12 12 12 11 10 11 11 12 12 12 13 14 13 11 10 10 9 9 9 8 8 8 8 8 9 9 9 10 10 11 11 10 9 8 7 6 6 6 7 7 7 8 10 11 11 10 10 10 9 10 11 11 11 12 13 11 9 9 11 11 11
14 13 13 12 12 11 10 10 11 12 12 13 13 14 13 11 10 9 9 9 9 8 8 9 9 11 12 12 11 11 9 8 9 9 9 9 7 6 6 6 6 7 8 7 7 9 11 11 11 11 10 10 10 10 11 12 13 11 10 10 11 12 12
17 14 13 13 13 13 12 10 8 8 10 13 14 14 12 11 10 9 9 10 11 11 11 11 11 12 12 12 12 12 10 9 9 9 9 8 6 5 5 4 4 5 5 4 4 7 9 11 12 11 11 11 11 12 12 13 12 11 11 12 13 13 13
19 17 16 14 13 14 15 13 10 8 9 12 14 13 13 12 12 12 12 13 13 13 12 12 12 11 10 10 10 10 10 9 8 7 7 7 6 5 5 5 4 4 4 3 4 5 7 8 10 10 10 10 9 10 12 13 13 12 12 13 14 14 13
18 18 19 18 15 14 15 14 11 10 10 11 12 12 12 11 11 10 9 10 10 10 9 9 9 9 8 8 9 8 8 7 6 5 5 5 5 5 5 6 6 6 6 4 4 4 5 6 6 7 7 6 6 8 10 12 13 13 13 14 14 15 14
16 17 18 18 18 16 14 12 11 10 11 11 12 12 10 7 6 5 5 5 5 5 5 6 6 7 7 7 7 7 6 6 6 5 5 5 5 6 7 8 10 10 7 4 3 4 4 4 4 4 4 4 5 6 7 8 9 12 14 15 15 15 15
14 14 15 17 19 19 18 15 11 10 10 10 9 9 8 9 7 5 4 4 3 3 3 4 5 6 6 6 6 6 6 6 5 4 4 5 6 6 7 9 9 7 5 3 3 3 4 3 3 3 4 4 4 4 5 5 5 6 9 12 13 14 15
6 5 6 8 10 15 21 21 15 10 10 8 7 8 8 6 4 3 3 4 4 3 3 4 5 5 6 5 5 5 5 6 5 4 4 4 5 6 7 7 6 4 4 4 4 3 3 3 2 2 3 4 4 4 4 4 4 3 4 6 8 9 11
4 3 4 5 6 3 11 17 15 9 7 8 8 7 5 3 3 3 3 5 6 5 5 5 5 5 5 5 5 5 5 5 5 4 3 4 5 6 6 5 4 3 4 5 4 3 3 3 2 2 2 3 4 4 4 3 3 3 3 3 3 5 6
Wind_Direction
219 221 222 224 225 225 224 223 222 219 216 215 215 216 218 217 217 220 222 222 219 216 216 218 219 221 224 224 226 231 235 235 235 235 237 243 246 246 243 242 245 253 263 262 260 264 269 276 287 289 287 288 290 292 294 295 296 299 299 300 306 311 305
219 222 223 224 226 226 225 225 224 221 217 217 217 217 217 218 220 223 224 223 220 218 218 219 218 219 220 220 222 225 229 232 233 233 235 237 240 242 242 240 243 250 259 264 262 263 266 271 277 278 279 282 285 287 289 288 286 287 287 289 295 300 296
218 220 222 225 226 226 227 226 225 223 220 220 219 218 219 220 221 224 225 224 223 221 221 219 216 216 215 215 217 220 223 227 228 230 232 234 236 239 242 241 243 249 255 263 264 262 265 268 269 271 275 279 280 282 283 281 279 278 279 283 285 284 286
216 218 221 223 225 226 228 227 226 226 224 224 223 221 222 222 223 226 227 228 227 224 221 218 215 214 212 210 212 215 219 222 224 227 229 232 235 238 242 244 245 247 251 259 264 263 263 266 268 270 272 274 276 275 274 274 274 274 273 271 272 276 282
213 215 218 222 225 226 228 228 228 227 226 225 224 223 224 225 226 229 230 231 230 225 220 217 214 212 209 207 208 210 215 216 217 221 225 231 234 236 240 244 245 247 249 253 259 262 262 263 265 268 268 269 271 273 271 269 267 266 263 263 266 271 274
211 212 217 221 225 226 228 229 229 229 228 225 224 224 225 225 228 234 235 233 230 226 222 218 216 213 208 205 206 208 210 212 212 215 221 226 230 234 239 242 245 248 249 251 255 258 260 259 260 263 264 261 260 263 265 265 265 263 259 260 262 265 268
212 214 218 221 225 227 228 229 229 228 226 224 223 223 225 228 232 235 235 231 228 226 224 222 219 216 213 210 209 208 206 205 205 209 216 222 225 229 234 239 243 245 247 250 253 255 257 257 257 259 262 261 256 254 255 257 261 262 258 254 255 257 260
216 216 219 222 225 226 227 228 227 226 223 221 222 222 226 231 232 232 232 231 229 226 224 224 220 217 216 215 213 212 211 208 205 206 212 217 218 221 226 233 238 241 243 247 250 251 253 255 256 256 257 258 256 252 249 246 248 254 256 253 250 249 247
219 217 219 222 225 227 228 227 226 226 223 219 220 223 226 228 228 230 232 232 231 229 225 224 221 218 218 218 217 218 218 216 213 211 212 210 209 211 217 225 233 236 236 239 245 249 249 248 250 251 251 250 249 249 248 242 240 245 249 251 252 251 247
221 219 220 223 226 226 228 229 229 227 223 220 221 222 222 224 227 230 232 231 231 230 227 224 222 221 221 223 224 224 223 221 219 218 218 211 205 207 210 213 222 228 231 233 237 241 243 245 245 244 245 246 247 249 251 249 243 242 244 247 251 254 250
223 221 221 223 226 226 228 231 229 225 224 224 225 224 223 225 227 227 228 230 229 228 227 226 225 225 226 225 225 226 226 224 222 223 223 220 214 213 215 214 215 219 223 229 236 239 239 240 242 242 240 243 247 248 248 248 246 245 245 243 244 252 249
224 224 222 222 224 226 229 230 228 227 229 230 230 231 231 231 231 227 225 227 229 230 230 230 230 229 228 226 224 227 229 226 224 225 226 226 225 222 222 222 221 221 220 221 229 238 240 238 240 242 239 237 239 243 246 248 247 246 246 245 245 249 248
225 226 225 224 225 227 228 229 231 233 234 234 235 236 236 237 236 231 228 228 228 230 232 233 234 231 230 228 224 227 232 231 228 227 228 229 230 230 229 228 227 228 230 231 232 235 238 238 237 236 236 236 235 234 239 245 246 244 244 246 247 248 249
225 226 227 228 229 231 234 237 236 235 236 238 239 240 241 242 241 236 233 232 231 233 235 235 234 232 231 228 222 222 229 233 233 232 232 232 233 233 234 234 233 230 230 233 237 240 243 246 246 244 244 246 244 239 237 237 238 240 240 241 244 247 251
225 227 229 231 233 235 239 241 238 235 239 242 242 244 245 245 244 240 235 233 231 232 234 233 231 231 230 229 225 222 225 230 234 235 236 236 237 237 235 234 236 235 229 227 233 241 247 251 254 255 255 256 256 255 252 244 238 244 248 249 251 252 255
225 225 229 232 234 235 238 241 239 237 241 244 245 247 247 245 244 241 237 234 231 230 231 231 230 230 230 230 229 225 222 226 232 234 235 237 239 241 240 239 239 239 235 231 233 241 247 252 256 257 258 259 259 260 259 250 241 246 249 249 255 256 250
221 222 229 231 231 232 236 240 239 239 242 246 247 247 245 242 240 239 237 236 234 233 234 233 230 229 229 230 231 230 227 227 228 231 232 234 236 237 240 244 244 242 239 236 236 241 246 251 254 252 251 252 252 254 252 239 229 235 235 234 244 254 248
217 220 228 229 229 231 234 238 240 240 243 247 248 245 242 238 237 236 235 234 233 233 234 234 232 229 228 231 233 233 234 236 236 233 229 229 230 229 233 240 244 244 244 243 241 243 245 247 249 246 243 242 242 241 234 224 227 229 224 226 235 247 254
214 218 222 224 228 232 233 237 243 245 246 248 246 241 236 233 232 232 231 230 229 230 231 233 233 230 228 230 233 235 239 242 239 231 226 226 223 218 228 239 242 243 245 245 244 245 244 244 245 244 242 240 240 237 229 228 234 229 214 220 232 237 246
212 216 216 218 227 232 234 237 243 247 248 246 243 238 231 228 228 227 227 227 226 228 230 231 231 231 228 228 233 236 237 235 228 217 218 222 216 214 231 241 242 244 246 243 243 246 246 244 244 243 242 241 241 237 230 229 233 230 221 218 225 230 234
209 213 216 219 226 233 238 241 246 250 249 243 240 237 230 226 226 224 223 223 224 226 229 229 229 228 225 226 232 232 225 221 226 226 224 224 222 230 243 244 240 244 246 243 243 245 246 247 245 241 239 239 238 235 229 226 228 230 229 225 221 224 230
208 209 214 222 227 235 242 245 248 250 248 242 239 235 230 228 225 222 221 221 222 224 227 228 226 222 218 220 227 227 221 222 232 233 233 238 240 246 253 248 240 238 234 231 234 234 235 241 240 233 230 231 231 231 229 226 225 228 231 230 226 222 224
208 209 213 223 227 234 240 243 247 248 245 243 241 238 234 231 226 221 220 222 223 224 225 225 222 217 213 214 219 225 227 229 233 235 239 245 250 257 262 258 247 235 220 215 220 220 221 231 231 223 220 220 221 225 228 228 227 227 229 232 233 231 229
202 207 215 223 229 234 238 242 250 254 251 246 242 239 236 232 227 222 221 222 225 225 223 223 223 219 218 219 221 226 229 232 239 243 244 248 254 260 261 253 233 219 207 202 207 209 215 225 224 219 222 223 223 225 225 228 231 231 228 230 235 236 234
201 208 216 223 231 240 242 241 247 254 254 246 239 237 234 229 226 223 220 221 226 228 225 222 220 216 216 221 226 231 236 240 245 246 248 252 251 245 238 225 211 218 225 226 228 227 230 234 231 228 231 230 224 218 216 220 227 230 229 228 230 233 233
204 211 218 225 234 241 244 241 239 244 246 238 233 232 230 227 226 225 224 225 227 227 221 215 212 212 215 222 226 229 234 238 241 244 247 242 231 219 214 220 231 237 241 247 253 254 250 249 247 243 236 225 214 212 216 220 220 219 223 225 224 225 227
207 212 216 224 235 238 238 238 237 236 233 227 223 222 222 223 222 219 217 215 210 206 202 201 207 213 216 221 224 226 231 235 237 240 237 225 219 218 217 221 231 240 247 250 251 253 254 255 256 250 230 210 210 217 219 219 215 207 210 216 215 217 224
208 215 218 224 233 232 230 235 234 228 221 216 212 208 206 205 203 196 195 193 187 187 192 200 209 215 217 221 222 223 229 232 231 229 223 217 217 221 228 238 245 249 251 249 246 249 252 255 256 252 233 212 212 215 210 205 208 208 204 197 196 203 216
211 217 221 225 229 225 223 227 226 222 218 212 205 199 195 197 199 199 205 208 202 198 203 208 212 218 220 221 220 220 220 216 210 206 206 207 206 209 227 243 247 244 243 238 233 240 246 248 250 251 245 234 226 220 210 202 204 209 204 194 197 206 214
225 226 225 227 231 229 224 223 223 221 213 205 201 200 200 203 206 207 212 212 205 204 210 211 211 215 215 214 214 213 206 195 191 192 195 197 201 209 221 223 217 222 228 221 221 235 241 245 248 250 251 250 243 235 226 213 207 210 206 196 201 212 218
235 235 230 231 236 236 230 226 226 228 215 201 198 201 205 209 213 217 220 217 211 210 210 208 208 209 207 208 210 204 192 184 182 184 185 187 191 198 202 198 196 203 210 214 224 232 234 240 246 248 250 252 251 251 242 224 210 208 207 203 206 213 218
239 239 233 231 235 236 229 219 214 227 234 217 201 202 211 215 217 220 217 210 209 207 199 197 205 207 199 197 196 183 170 167 166 166 175 183 188 193 194 194 200 209 214 214 218 223 226 234 239 242 248 250 250 257 254 236 218 208 204 206 211 215 218
241 240 233 229 228 226 222 215 211 226 237 223 207 206 203 184 159 144 148 164 182 191 186 186 196 193 184 182 176 161 151 154 157 164 185 195 196 200 206 211 215 217 216 209 208 220 228 236 239 243 254 256 247 248 255 250 235 217 206 207 214 218 220
245 237 230 229 226 221 220 219 217 220 220 210 201 190 166 144 133 129 148 172 176 170 174 178 176 172 168 164 157 152 154 159 158 164 189 202 207 212 217 219 216 212 206 200 209 222 226 233 243 247 252 257 254 246 246 253 255 234 213 209 215 221 222
238 212 208 216 219 223 223 217 208 206 205 190 162 142 136 142 169 202 213 222 224 210 196 194 188 179 172 167 162 162 164 167 168 171 181 194 206 214 217 212 202 196 205 210 212 220 227 230 240 248 251 257 260 257 249 246 251 255 238 219 217 222 224
207 161 113 105 106 157 211 203 191 181 166 148 143 153 164 188 230 235 225 227 232 229 216 206 198 188 179 174 171 165 157 155 164 171 176 188 199 202 201 194 183 186 210 214 214 225 231 229 232 240 245 250 249 249 253 253 253 258 259 247 233 230 231